Hourly Weather Rudka

Today, 26 July, Monday

Time Temperature Precipitation Wind Pressure Humidity
00:00 +21°C° 0 mm 3 mps 759 mmHg 58%
01:00 +21°C° 0 mm 3 mps 759 mmHg 60%
02:00 +20°C° 0 mm 3 mps 759 mmHg 62%
03:00 +20°C° 0 mm 3 mps 759 mmHg 61%
04:00 +20°C° 0 mm 3 mps 759 mmHg 61%
05:00 +20°C° 0 mm 3 mps 759 mmHg 61%
06:00 +22°C° 0 mm 3 mps 759 mmHg 56%
07:00 +25°C° 0 mm 3 mps 759 mmHg 52%
08:00 +27°C° 0 mm 3 mps 759 mmHg 47%
09:00 +28°C° 0 mm 3 mps 759 mmHg 43%
10:00 +30°C° 0 mm 3 mps 759 mmHg 39%
11:00 +32°C° 0 mm 4 mps 759 mmHg 35%
12:00 +33°C° 0 mm 3 mps 759 mmHg 33%
13:00 +33°C° 0 mm 3 mps 759 mmHg 31%
14:00 +34°C° 0 mm 3 mps 758 mmHg 29%
15:00 +33°C° 0 mm 3 mps 758 mmHg 30%
16:00 +32°C° 0 mm 2 mps 758 mmHg 31%
17:00 +32°C° 0 mm 2 mps 758 mmHg 32%
18:00 +30°C° 0 mm 2 mps 758 mmHg 37%
19:00 +28°C° 0 mm 2 mps 758 mmHg 41%
20:00 +26°C° 0 mm 1 mps 759 mmHg 45%
21:00 +25°C° 0 mm 2 mps 759 mmHg 47%
22:00 +25°C° 0 mm 2 mps 759 mmHg 48%
23:00 +24°C° 0 mm 2 mps 759 mmHg 50%

Tomorrow, 27 July, Tuesday

Time Temperature Precipitation Wind Pressure Humidity
00:00 +23°C° 0 mm 2 mps 759 mmHg 52%
01:00 +23°C° 0 mm 2 mps 759 mmHg 55%
02:00 +21°C° 0 mm 3 mps 759 mmHg 57%
03:00 +21°C° 0 mm 3 mps 759 mmHg 58%
04:00 +20°C° 0 mm 3 mps 759 mmHg 59%
05:00 +20°C° 0 mm 3 mps 759 mmHg 59%
06:00 +22°C° 0 mm 3 mps 759 mmHg 54%
07:00 +26°C° 0 mm 3 mps 759 mmHg 48%
08:00 +28°C° 0 mm 4 mps 759 mmHg 42%
09:00 +30°C° 0 mm 3 mps 759 mmHg 38%
10:00 +31°C° 0 mm 3 mps 759 mmHg 34%
11:00 +34°C° 0 mm 3 mps 759 mmHg 31%
12:00 +34°C° 0 mm 3 mps 758 mmHg 29%
13:00 +35°C° 0 mm 3 mps 758 mmHg 28%
14:00 +35°C° 0 mm 3 mps 758 mmHg 26%
15:00 +34°C° 0 mm 3 mps 758 mmHg 27%
16:00 +34°C° 0 mm 3 mps 758 mmHg 28%
17:00 +33°C° 0 mm 3 mps 757 mmHg 30%
18:00 +31°C° 0 mm 3 mps 757 mmHg 34%
19:00 +29°C° 0 mm 3 mps 757 mmHg 38%
20:00 +27°C° 0 mm 3 mps 757 mmHg 41%
21:00 +26°C° 0 mm 3 mps 758 mmHg 46%
22:00 +26°C° 0 mm 3 mps 758 mmHg 50%
23:00 +25°C° 0 mm 3 mps 758 mmHg 54%

Day after tomorrow, 28 July, Wednesday

Time Temperature Precipitation Wind Pressure Humidity
00:00 +24°C° 0 mm 3 mps 757 mmHg 56%
01:00 +24°C° 0 mm 3 mps 757 mmHg 58%
02:00 +24°C° 0 mm 3 mps 757 mmHg 61%
03:00 +24°C° 0 mm 3 mps 757 mmHg 63%
04:00 +24°C° 0 mm 3 mps 757 mmHg 64%
05:00 +24°C° 0 mm 3 mps 757 mmHg 66%
06:00 +25°C° 0 mm 3 mps 757 mmHg 61%
07:00 +27°C° 0 mm 4 mps 757 mmHg 57%
08:00 +29°C° 0 mm 4 mps 757 mmHg 52%
09:00 +30°C° 0 mm 4 mps 756 mmHg 49%
10:00 +32°C° 0 mm 4 mps 756 mmHg 45%
11:00 +33°C° 0 mm 5 mps 756 mmHg 42%
12:00 +32°C° 0 mm 4 mps 756 mmHg 43%
13:00 +31°C° 0 mm 3 mps 756 mmHg 44%
14:00 +31°C° 0 mm 2 mps 755 mmHg 44%
15:00 +31°C° 0 mm 2 mps 755 mmHg 43%
16:00 +31°C° 0 mm 2 mps 755 mmHg 42%
17:00 +32°C° 0 mm 2 mps 754 mmHg 40%
18:00 +30°C° 0.3 mm 2 mps 754 mmHg 46%
19:00 +29°C° 0.3 mm 3 mps 754 mmHg 52%
20:00 +27°C° 0.3 mm 3 mps 754 mmHg 58%
21:00 +26°C° 1.2 mm 3 mps 754 mmHg 67%
22:00 +24°C° 1.2 mm 2 mps 754 mmHg 76%
23:00 +23°C° 1.2 mm 2 mps 755 mmHg 85%

29 July, Thursday

Time Temperature Precipitation Wind Pressure Humidity
00:00 +23°C° 0 mm 2 mps 754 mmHg 86%
01:00 +21°C° 0 mm 3 mps 754 mmHg 86%
02:00 +21°C° 0 mm 3 mps 754 mmHg 87%
03:00 +21°C° 0 mm 2 mps 754 mmHg 88%
04:00 +21°C° 0 mm 2 mps 754 mmHg 88%
05:00 +22°C° 0 mm 1 mps 754 mmHg 89%
06:00 +23°C° 0 mm 1 mps 754 mmHg 82%
07:00 +25°C° 0 mm 1 mps 754 mmHg 75%
08:00 +27°C° 0 mm 1 mps 754 mmHg 68%
09:00 +29°C° 0 mm 1 mps 754 mmHg 61%
10:00 +30°C° 0 mm 1 mps 754 mmHg 54%
11:00 +32°C° 0 mm 1 mps 754 mmHg 47%
12:00 +33°C° 0 mm 1 mps 754 mmHg 44%
13:00 +34°C° 0 mm 1 mps 753 mmHg 40%
14:00 +34°C° 0 mm 1 mps 753 mmHg 37%
15:00 +34°C° 0 mm 1 mps 753 mmHg 36%
16:00 +34°C° 0 mm 1 mps 753 mmHg 35%
17:00 +34°C° 0 mm 1 mps 752 mmHg 35%
18:00 +32°C° 0 mm 1 mps 752 mmHg 39%
19:00 +30°C° 0 mm 1 mps 752 mmHg 44%
20:00 +28°C° 0 mm 1 mps 752 mmHg 49%
21:00 +27°C° 0.1 mm 1 mps 752 mmHg 52%
22:00 +27°C° 0.1 mm 1 mps 752 mmHg 55%
23:00 +26°C° 0.1 mm 1 mps 752 mmHg 59%

30 July, Friday

Time Temperature Precipitation Wind Pressure Humidity
00:00 +25°C° 0.2 mm 1 mps 752 mmHg 65%
01:00 +24°C° 0.2 mm 2 mps 752 mmHg 72%
02:00 +23°C° 0.2 mm 2 mps 752 mmHg 78%
03:00 +23°C° 0 mm 2 mps 752 mmHg 78%
04:00 +23°C° 0 mm 1 mps 752 mmHg 79%
05:00 +21°C° 0 mm 0 mps 752 mmHg 79%
06:00 +25°C° 0 mm 1 mps 752 mmHg 72%
07:00 +27°C° 0 mm 1 mps 753 mmHg 66%
08:00 +29°C° 0 mm 1 mps 753 mmHg 59%
09:00 +30°C° 0 mm 2 mps 753 mmHg 54%
10:00 +32°C° 0 mm 2 mps 753 mmHg 49%
11:00 +34°C° 0 mm 2 mps 752 mmHg 44%
12:00 +35°C° 0 mm 3 mps 752 mmHg 41%
13:00 +36°C° 0 mm 3 mps 752 mmHg 39%
14:00 +36°C° 0 mm 3 mps 752 mmHg 37%
15:00 +36°C° 0 mm 3 mps 751 mmHg 38%
16:00 +35°C° 0 mm 3 mps 751 mmHg 40%
17:00 +35°C° 0 mm 3 mps 751 mmHg 42%
18:00 +33°C° 0.1 mm 3 mps 751 mmHg 48%
19:00 +30°C° 0.1 mm 3 mps 751 mmHg 54%
20:00 +28°C° 0.1 mm 2 mps 751 mmHg 60%
21:00 +27°C° 0.5 mm 3 mps 751 mmHg 67%
22:00 +25°C° 0.5 mm 3 mps 752 mmHg 75%
23:00 +22°C° 0.5 mm 3 mps 752 mmHg 83%

31 July, Saturday

Time Temperature Precipitation Wind Pressure Humidity
00:00 +22°C° 0 mm 3 mps 752 mmHg 82%
01:00 +23°C° 0 mm 2 mps 752 mmHg 82%
02:00 +23°C° 0 mm 2 mps 751 mmHg 81%
03:00 +23°C° 0 mm 2 mps 751 mmHg 82%
04:00 +23°C° 0 mm 2 mps 751 mmHg 82%
05:00 +23°C° 0 mm 2 mps 752 mmHg 83%
06:00 +25°C° 0 mm 2 mps 752 mmHg 75%
07:00 +27°C° 0 mm 2 mps 752 mmHg 67%
08:00 +29°C° 0 mm 1 mps 752 mmHg 60%
09:00 +30°C° 0 mm 2 mps 751 mmHg 53%
10:00 +32°C° 0 mm 2 mps 751 mmHg 46%
11:00 +35°C° 0 mm 3 mps 751 mmHg 39%
12:00 +36°C° 0 mm 3 mps 751 mmHg 37%
13:00 +36°C° 0 mm 3 mps 751 mmHg 35%
14:00 +37°C° 0 mm 3 mps 750 mmHg 32%
15:00 +37°C° 0 mm 4 mps 750 mmHg 32%
16:00 +37°C° 0 mm 4 mps 750 mmHg 32%
17:00 +37°C° 0 mm 4 mps 750 mmHg 33%
18:00 +35°C° 0 mm 4 mps 750 mmHg 38%
19:00 +33°C° 0 mm 4 mps 750 mmHg 43%
20:00 +30°C° 0 mm 4 mps 750 mmHg 48%
21:00 +27°C° 0.7 mm 4 mps 750 mmHg 60%
22:00 +25°C° 0.7 mm 4 mps 751 mmHg 73%
23:00 +22°C° 0.7 mm 4 mps 752 mmHg 85%
Show more

We Need Your Consent

Meteoprog and our Service Providers may store and access personal data such as cookies, device identifiers or other similar technologies on your device and process such data to personalise content and ads, as well as provide social media features and to analyse the traffic.

  • Store and/or access information on your device

    Cookies, device identifiers or other information can be stored or accessed on your device for the purposes indicated above.

  • Personalised ads and content, ad and content measurement, audience insights, and products development

    Ads and content can be personalised based on a profile. More data can be added to better personalise ads and content. Ad and content performance can be measured. Insights about the audience who saw the ads and content can be derived. Such data can be used to develop or improve user’s experience, systems and software.

By clicking ‘I Agree’ you will allow the use of indicated cookies, device identifiers, web beacons or other similar technologies. Your settings can be changed in the browser on your device.

For certain purposes, legitimate interests may be relied on, rather than consent. You can read more about this in our Privacy and Cookie Policy.